Location: Antioch Baptist Church
(32.6696°N, 85.7327°W)
Time: 12:25:37
(UTC+00:00)

Cosmos 1610 Rocket - Pass Details

Date: 14 July 2020
Orbit: 953 x 1002 km, 82.9° (Epoch: 09 August)

Event Time Altitude Azimuth Distance (km) Brightness Sun altitude
Exits shadow 03:20:17 46° 188° (S) 1,311 4.8 -25.1°
Maximum altitude 03:22:23 87° 274° (W) 1,001 4.4 -25.4°
Drops below altitude 10° 03:28:47 10° 5° (N) 2,776 7.5 -26.2°
Sets 03:31:19 0° 6° (N) 3,731 8.2 -26.6°
